EW4645 Weather Reports


Display with metric or nautical units.
time (UTC)temp
F
wind
direction
speed
MPH
gust
MPH
rain 1hr
in
rain 24hr
in
rain mn
in
humidity
%
barometer
mb
20260506041504 48 346 1.0 6.0 0.00 0.00 0.00 89 1014.4
20260506040006 49 333 3.0 8.0 0.00 0.00 0.00 89 1014.5
20260506034504 48 315 2.0 6.0 0.00 0.00 0.00 88 1014.6
20260506033006 48 0 0.0 0.0 0.00 0.00 0.00 87 1014.6
20260506031504 49 298 0.0 3.0 0.00 0.00 0.00 86 1014.7
20260506024504 49 298 1.0 3.0 0.00 0.00 0.00 85 1014.8
20260506023006 49 298 2.0 6.0 0.00 0.00 0.00 84 1014.7
20260506020006 49 297 4.0 7.0 0.00 0.00 0.00 84 1014.9
20260506014504 50 298 3.0 6.0 0.00 0.00 0.00 83 1014.9
20260506013006 50 297 2.0 6.0 0.00 0.00 0.00 83 1015.0
20260506011504 50 297 3.0 6.0 0.00 0.00 0.00 83 1015.1
20260506010006 50 294 2.0 6.0 0.00 0.00 0.00 82 1015.2
20260506004504 50 294 0.0 4.0 0.00 0.00 0.00 82 1015.3
20260506003006 50 294 1.0 5.0 0.00 0.00 0.00 82 1015.3
20260506001503 50 262 1.0 4.0 0.00 0.00 0.00 81 1015.3
20260506000006 51 156 0.0 3.0 0.00 0.00 0.00 81 1015.4
20260505234504 51 0 0.0 0.0 0.00 0.00 0.00 80 1015.3
20260505233006 51 0 0.0 0.0 0.00 0.00 0.00 80 1015.4
20260505231504 51 0 0.0 0.0 0.00 0.00 0.00 80 1015.5
20260505230008 50 0 0.0 0.0 0.00 0.00 0.00 81 1015.6
20260505224504 50 0 0.0 0.0 0.00 0.00 0.00 81 1015.7
20260505223006 50 0 0.0 0.0 0.00 0.00 0.00 83 1015.9
20260505221504 50 0 0.0 0.0 0.00 0.00 0.00 83 1015.9
20260505220006 51 0 0.0 0.0 0.00 0.00 0.00 84 1016.0
20260505214504 51 167 1.0 6.0 0.00 0.00 0.00 83 1016.0
20260505213006 51 167 1.0 5.0 0.00 0.00 0.00 83 1016.0
20260505211504 51 168 1.0 5.0 0.00 0.00 0.00 83 1016.0
20260505203006 51 158 1.0 5.0 0.00 0.00 0.00 83 1016.0
20260505201504 51 112 1.0 7.0 0.00 0.00 0.00 82 1016.0
20260505200006 51 172 2.0 8.0 0.00 0.00 0.00 82 1016.0
20260505194504 51 170 1.0 9.0 0.00 0.00 0.00 81 1015.8
20260505191506 52 170 2.0 8.0 0.00 0.00 0.00 80 1015.8
20260505190006 51 160 2.0 10.0 0.00 0.00 0.00 80 1015.7
20260505184504 52 168 2.0 10.0 0.00 0.00 0.00 81 1015.6
20260505183006 52 157 3.0 9.0 0.00 0.00 0.00 82 1015.6
20260505181505 51 144 4.0 12.0 0.00 0.00 0.00 82 1015.6
20260505180006 52 145 2.0 7.0 0.00 0.00 0.00 83 1015.7
20260505174504 52 120 5.0 10.0 0.00 0.00 0.00 81 1015.8
20260505173006 53 119 5.0 14.0 0.00 0.00 0.00 77 1015.7
20260505170006 56 337 6.0 16.0 0.00 0.00 0.00 68 1015.6
20260505164504 56 336 3.0 11.0 0.00 0.00 0.00 67 1015.6
20260505163006 57 325 8.0 19.0 0.00 0.00 0.00 65 1015.6
20260505153006 58 341 5.0 14.0 0.00 0.00 0.00 60 1015.7
20260505151504 58 320 6.0 14.0 0.00 0.00 0.00 62 1015.7
20260505124504 58 302 6.0 24.0 0.00 0.00 0.00 63 1016.1
20260505123006 56 357 6.0 16.0 0.00 0.00 0.00 63 1016.2
20260505121504 56 27 6.0 14.0 0.00 0.00 0.00 63 1016.1
20260505120006 56 13 8.0 25.0 0.00 0.00 0.00 62 1016.1
20260505114504 56 43 8.0 18.0 0.00 0.00 0.00 60 1016.1
20260505101504 57 5 11.0 31.0 0.00 0.00 0.00 61 1016.4
20260505100006 57 356 9.0 21.0 0.00 0.00 0.00 63 1016.5
20260505094504 57 340 9.0 20.0 0.00 0.00 0.00 67 1016.4
20260505093006 55 357 10.0 23.0 0.00 0.00 0.00 71 1016.5
20260505091503 55 5 9.0 27.0 0.00 0.00 0.00 69 1016.5
20260505090005 54 9 8.0 20.0 0.00 0.00 0.00 72 1016.4
20260505083005 53 23 7.0 15.0 0.00 0.00 0.00 75 1016.6
20260505081504 53 36 7.0 22.0 0.00 0.00 0.00 76 1016.5
20260505074504 52 354 10.0 20.0 0.00 0.00 0.00 76 1016.5
20260505073006 53 346 9.0 23.0 0.00 0.00 0.00 76 1016.4
20260505071504 52 331 8.0 20.0 0.00 0.00 0.00 77 1016.4
20260505070005 51 330 8.0 20.0 0.00 0.00 0.00 78 1016.4
20260505064505 51 334 7.0 18.0 0.00 0.00 0.00 79 1016.4
20260505063005 50 325 6.0 16.0 0.00 0.00 0.00 80 1016.4
20260505061504 49 342 7.0 19.0 0.00 0.00 0.00 82 1016.4
20260505060005 47 333 7.0 17.0 0.00 0.00 0.00 84 1016.4
20260505054504 47 328 6.0 16.0 0.00 0.00 0.00 83 1016.3
20260505053005 47 344 9.0 19.0 0.00 0.00 0.00 81 1016.3
20260505051503 48 355 10.0 18.0 0.00 0.00 0.00 81 1016.2